www.pogodaiklimat.ru

Погода и климат >> Архив погоды >> Канада >> Новая Шотландия >> Галифакс аэропорт


АРХИВ ПОГОДЫ в Галифакс аэропорту

Время (UTC), дата Ветер
(напр.,м/с)
 
Видим.   Явления Облачность Т
(С)
Тd
(С)
f
(%)
Тe
(С)
Тes
(С)
Комфортность P
(гПа)
Po
(гПа)
Тmin
(С)
Tmax
(С)
R
(мм)
R24
(мм)
S
(см)
03 10.07 ЮЗ 3 24 км 10/0
[]
+17.4 +11.3 67 +18 +18 тепло 1013.0 995.7
06 10.07 СЗ 2 24 км 10/4 1500 м
[Sc Ac As]
+17.1 +10.8 66 +17 +17 тепло 1012.8 995.5 +13.5 +24.2 181
09 10.07 СЗ 3 24 км 5/0 2000 м
[]
+14.8 +10.1 73 +14 +14 по сезону 1013.3 996.0
12 10.07 СЗ 5 24 км 3/3 600 м
[]
+17.9 +11.3 65 +17 +20 по сезону 1014.3 997.0 +14.6 +24.2
15 10.07 С 7 24 км 4/4 1500 м
[]
+21.0 +9.3 47 +22 +25 комфорт 1014.4 997.1
18 10.07 С 7 24 км 8/6 1500 м
[Cu hum Ci fib]
+20.5 +9.1 48 +22 +23 комфорт 1014.7 997.4 +14.6 +22.1
21 10.07 С 7 24 км 3/3 1000 м
[]
+19.9 +7.8 46 +20 +21 тепло 1015.7 998.3
00 11.07 С 3 24 км 1/1 1000 м
[Sc diur, vesp Ci fib]
+15.1 +8.6 65 +15 +15 по сезону 1018.0 1000.5 +14.6 +22.1
03 11.07 С 2 24 км ясно +12.3 +7.6 73 +12 +12 прохладно 1018.6 1001.1
06 11.07 С 2 24 км ясно +10.1 +7.7 85 +9 +9 прохладно 1018.2 1000.7 +10.0 +22.1 191
09 11.07 С 2 24 км 1/0
[]
+9.7 +7.5 86 +8 +8 холодно 1018.8 1001.3
12 11.07 С 3 24 км 3/1 600 м
[Cu hum Ci fib]
+15.8 +9.3 65 +15 +20 по сезону 1020.3 1002.8 +9.6 +22.1
15 11.07 С 4 24 км 8/8 1000 м
[]
+20.4 +9.9 51 +22 +25 комфорт 1019.8 1002.3
18 11.07 С 3 24 км 8/5 1500 м
[Cu hum Ci fib]
+22.0 +8.7 43 +23 +30 комфорт 1018.6 1001.1 +9.6 +22.0
21 11.07 ЮЗ 4 24 км 6/6 1500 м
[]
+22.9 +10.7 46 +25 +26 комфорт 1016.9 999.4
00 12.07 ЮЗ 3 24 км 8/1 1500 м
[Sc diur, vesp Ac As Ci fib]
+17.1 +9.8 62 +17 +17 по сезону 1017.7 1000.2 +9.6 +23.5
03 12.07 ЮЗ 5 24 км 10/10 1500 м
[]
+15.5 +11.1 75 +14 +14 по сезону 1017.5 1000.1
06 12.07 Ю 3 24 км 4/0
[Cs]
+14.0 +11.5 85 +13 +13 по сезону 1017.0 999.6 +9.6 +23.5
09 12.07 Ю 4 24 км 9/0 2000 м
[]
+13.9 +13.4 97 +12 +12 прохладно 1016.9 999.5
12 12.07 Ю 4 24 км 10/0 2000 м
[Ac As]
+16.4 +14.3 87 +16 +17 по сезону 1016.1 998.7 +13.5 +23.5
15 12.07 Ю 6 24 км 10/0 2000 м
[]
+18.9 +13.6 71 +19 +23 по сезону 1016.1 998.7
18 12.07 ЮВ 6 24 км слаб. дождь 10/1 600 м
[Cu hum As op]
+17.8 +15.1 84 +17 +19 холодно 1014.6 997.2 +13.5 +19.7 0.0
21 12.07 ЮВ 7 19 км 10/10 100 м
[]
+16.2 +15.7 97 +15 +15 холодно 1012.8 995.4
00 13.07 ЮВ 5 4800 м слаб. дождь 10/10 50 м
[Frnb]
+16.3 +16.3 100 +15 +15 прохладно 1011.5 994.1 +13.5 +19.7 2
03 13.07 ЮВ 5 16 км 10/10 50 м
[]
+16.9 +16.8 99 +16 +16 по сезону 1010.3 993.0
06 13.07 В 4 1600 м дымка {дождь} н/о +16.6 +16.6 100 +16 +16 тепло 1008.4 991.1 +13.5 +19.7 1 201
09 13.07 В 3 1600 м н/о +16.4 +16.4 100 +16 +16 по сезону 1008.1 990.8
12 13.07 СВ 3 4000 м слаб. морось 10/10 50 м
[Frnb]
+16.9 +16.9 100 +17 +17 по сезону 1009.1 991.8 +16.1 +19.7 0.4
15 13.07 СВ 4 24 км 10/10 300 м
[]
+19.6 +16.3 81 +22 +22 комфорт 1009.5 992.2
18 13.07 С 2 24 км {морось} 10/10 600 м
[Sc]
+21.2 +16.4 74 +25 +25 комфорт 1010.0 992.7 +16.0 +21.3 0.0
21 13.07 СЗ 2 24 км 9/9 1000 м
[]
+22.1 +16.2 69 +26 +27 душно 1010.1 992.8
00 14.07 Ю 3 24 км 10/10 600 м
[Sc]
+19.3 +16.9 86 +21 +21 комфорт 1011.3 994.0 +16.2 +23.0
03 14.07 Ю 4 24 км 9/9 600 м
[]
+17.3 +16.8 97 +17 +17 тепло 1011.8 994.5
06 14.07 ЮЗ 3 1200 м в посл. час туман {дождь} н/о +16.1 +16.1 100 +16 +16 тепло 1011.4 994.1 +16.1 +23.0 0.4
09 14.07 Ю 2 200 м н/о +16.3 +16.3 100 +16 +16 по сезону 1011.8 994.5
12 14.07 1200 м в посл. час туман н/о +17.0 +17.0 100 +16 +17 по сезону 1011.8 994.5 +16.1 +23.0
15 14.07 Ю 6 24 км 9/9 300 м
[]
+20.9 +17.5 81 +25 +25 комфорт 1011.0 993.7
18 14.07 Ю 6 24 км в посл. час ливневой дождь 9/8 300 м
[Sc Ac As]
+19.9 +17.8 88 +22 +23 комфорт 1009.9 992.6 +16.1 +21.4 0.4
21 14.07 Ю 4 9000 м 10/10 50 м
[]
+18.1 +17.2 94 +18 +18 прохладно 1008.5 991.2
00 15.07 ЮЗ 3 24 км 10/10 100 м
[St]
+17.7 +17.1 96 +18 +18 по сезону 1008.7 991.4 +16.1 +21.4
03 15.07 ЮЗ 2 2400 м 1/1 1000 м
[]
+16.3 +16.3 100 +17 +17 по сезону 1008.8 991.5
06 15.07 З 3 3200 м {туман} 8/0
[Ac As]
+15.9 +15.9 100 +15 +15 по сезону 1008.4 991.1 +14.7 +21.4 170
09 15.07 СЗ 4 24 км 3/0
[]
+15.5 +14.6 94 +14 +14 по сезону 1008.4 991.1
12 15.07 З 4 24 км 3/0
[Ac As]
+20.1 +15.6 75 +23 +26 комфорт 1009.1 991.9 +14.7 +21.4
15 15.07 З 8 24 км 5/5 1000 м
[]
+23.2 +13.0 53 +26 +28 жарко 1008.6 991.4
18 15.07 З 7 24 км 6/6 1500 м
[Cu hum]
+24.0 +14.1 54 +26 +28 жарко 1008.6 991.4 +14.7 +24.2
21 15.07 З 6 24 км 8/8 1000 м
[]
+22.2 +14.7 62 +26 +26 душно 1009.0 991.8
00 16.07 СЗ 4 24 км слаб. ливневой дождь 8/6 600 м
[Cu Sc Ci ing]
+18.2 +16.7 91 +18 +18 по сезону 1011.1 993.8 +15.4 +24.3 0.0
03 16.07 СЗ 4 24 км 6/6 600 м
[]
+16.5 +16.2 98 +16 +16 по сезону 1012.4 995.1
06 16.07 З 4 24 км {ливн. осадки} 3/0
[Ci fib]
+16.3 +15.2 93 +16 +16 тепло 1012.6 995.3 +15.4 +24.3 0.0 151
09 16.07 З 4 24 км 5/0
[]
+16.3 +14.8 91 +16 +16 по сезону 1013.5 996.2
12 16.07 СЗ 5 24 км ясно +19.8 +15.5 76 +22 +26 комфорт 1014.8 997.5 +15.9 +24.3
15 16.07 СЗ 4 24 км 1/1 1000 м
[]
+25.0 +14.4 52 +28 +38 жарко 1015.2 997.9
18 16.07 СЗ 2 24 км 8/1 1500 м
[Cu hum Ci fib]
+27.0 +11.4 38 +28 +40 жарко 1014.6 997.3 +15.9 +27.5
21 16.07 СЗ 3 24 км 8/8 1500 м
[]
+26.9 +12.1 40 +28 +29 жарко 1014.3 997.0

 

Местоположение метеостанции Галифакс аэропорт (Новая Шотландия, Канада): широта 44.88 долгота -63.51 высота над уровнем моря 145 м.

В архиве по умолчанию представлена погода в Галифакс аэропорту за последнюю неделю. Архивные данные за месяц целиком и за предыдущие месяцы, начиная с января 2011 года, Вы можете получить, выбрав интересующий диапазон дат из раскрывающегося списка и нажав кнопку "Ввод!".


*Определитесь, кто Вы:
робот инопланетянин человек

Внимание! Время в таблицах - всемирное. Для получения местного времени необходимо прибавить поправку, которая равна -4 ч.

Смотрите также архив погоды в соседних городах и на ближайших метеорологических станциях:

Погода в Bedford Range (Новая Шотландия, Канада) (19 км)
Погода в Галифаксе Dockyard (Новая Шотландия, Канада) (25 км)
Погода в Галифаксе Windsor Park (Новая Шотландия, Канада) (26 км)
Погода в Меррите (Британская Колумбия, Канада) (28 км)
Погода в Галифаксе Osborne Head (Новая Шотландия, Канада) (31 км)
Погода в Аппер Стьюиак (Новая Шотландия, Канада) (53 км)
Погода в Мусони (Онтарио, Канада) (58 км)
Погода в Деберте (Новая Шотландия, Канада) (60 км)
Погода в Кентвилле (Новая Шотландия, Канада) (79 км)
Погода в Паррсборо (Новая Шотландия, Канада) (89 км)

Пояснения к столбцам:

Ветер - указаны скорость ветра в м/с - средняя за 10 мин, порывы в срок и между сроками (в фигурных скобках) и направление, откуда дует ветер: С - северный, СВ - северо-восточный, В - восточный, ЮВ - юго-восточный, Ю - южный, ЮЗ - юго-западный, З - западный, СЗ - северо-западный.
Видимость - горизонтальная дальность видимости в метрах или километрах. При видимости от 1 до 10 км при отсутствии осадков обычно наблюдается дымка, при ухудшении видимости до 1 км и менее - туман. В сухую погоду видимость может ухудшаться дымом, пылью или мглою.
Явления - указаны атмосферные явления, наблюдавшиеся в срок или в последний час перед сроком; фигурными скобками обозначены явления, наблюдавшиеся между сроками (за 1-3 часа до срока); квадратными скобками обозначены град или гололедные отложения с указанием их диаметра в мм.
Облачность - указаны через наклонную черту общая и нижняя облачность в баллах и высота нижней границы облаков в метрах; квадратными скобками обозначены формы облаков: Ci - перистые, Cs - перисто-слоистые, Cc - перисто-кучевые, Ac - высококучевые, As - высокослоистые, Sc - слоисто-кучевые, Ns - слоисто-дождевые, Cu - кучевые, Cb - кучево-дождевые. Подробнее классификацию облаков см. в Атласе облаков (PDF).
T - Температура воздуха - температура, измеренная на высоте 2 м над землей.
Td - Температура точки росы - температура, при понижении до которой содержащийся в воздухе водяной пар достигнет насыщения.
f - Относительная влажность воздуха - влажноcть воздуха, измеренная на высоте 2 м над землей.
Te - Эффективная температура - температура, которую ощущает одетый по сезону человек в тени. Характеристика душности погоды. При расчете учитывается влияние влажности воздуха и скорости ветра на теплоощущения человека.
Tes - Эффективная температура на солнце - температура, которую ощущает человек, с поправкой на солнечный нагрев. Характеристика знойности погоды. Зависит от высоты солнца над горизонтом, облачности и скорости ветра. Ночью, в пасмурную погоду, а также при ветре 12 м/с и более поправка равна нулю.
P - Атмосферное давление - приведенное к уровню моря атмосферное давление.
Po - Атмосферное давление - измеренное на уровне метеостанции атмосферное давление.
Tmin - Минимальная температура - минимум температуры воздуха на высоте 2 м над землей.
Tmax - Максимальная температура - максимум температуры воздуха на высоте 2 м над землей.
R - Количество осадков - Количество выпавших осадков за период времени, мм. При наведении курсора мыши на число - период времени, за который выпало указанное количество осадков.
R24 - Количество осадков - Количество выпавших осадков за 24 часа, мм.
S - Снежный покров - Высота снежного покрова, см. При наведении курсора мыши на число - состояние снежного покрова и степень покрытия местности в баллах.